TimeEST,TemperatureF,Dew PointF,Humidity,Sea Level PressureIn,VisibilityMPH,Wind Direction,Wind SpeedMPH,Gust SpeedMPH,PrecipitationIn,Events,Conditions,WindDirDegrees,DateUTC
12:15 AM,30.4,24.6,79,30.27,10.0,Calm,Calm,-,N/A,,Clear,0,2013-03-09 05:15:00
12:35 AM,28.0,24.1,85,30.27,10.0,Calm,Calm,-,N/A,,Clear,0,2013-03-09 05:35:00
12:55 AM,29.1,24.4,83,30.28,10.0,Calm,Calm,-,N/A,,Clear,0,2013-03-09 05:55:00
1:15 AM,29.5,24.6,82,30.28,10.0,Calm,Calm,-,N/A,,Clear,0,2013-03-09 06:15:00
1:35 AM,28.9,24.1,82,30.28,10.0,Calm,Calm,-,N/A,,Clear,0,2013-03-09 06:35:00
1:55 AM,28.9,24.1,82,30.27,10.0,Calm,Calm,-,N/A,,Clear,0,2013-03-09 06:55:00
2:15 AM,28.0,23.9,84,30.27,10.0,Calm,Calm,-,N/A,,Clear,0,2013-03-09 07:15:00
2:35 AM,29.1,25.3,86,30.27,10.0,Calm,Calm,-,N/A,,Clear,0,2013-03-09 07:35:00
2:55 AM,28.4,24.8,86,30.26,10.0,Calm,Calm,-,N/A,,Clear,0,2013-03-09 07:55:00
3:15 AM,27.9,23.9,85,30.25,10.0,Calm,Calm,-,N/A,,Clear,0,2013-03-09 08:15:00
3:35 AM,26.1,23.2,89,30.24,10.0,Calm,Calm,-,N/A,,Clear,0,2013-03-09 08:35:00
3:55 AM,28.0,23.5,83,30.24,10.0,Calm,Calm,-,N/A,,Clear,0,2013-03-09 08:55:00
4:15 AM,28.0,23.4,83,30.24,10.0,Calm,Calm,-,N/A,,Clear,0,2013-03-09 09:15:00
4:35 AM,27.7,23.5,84,30.24,10.0,Calm,Calm,-,N/A,,Clear,0,2013-03-09 09:35:00
4:55 AM,27.0,23.7,88,30.24,10.0,Calm,Calm,-,N/A,,Clear,0,2013-03-09 09:55:00
5:15 AM,25.7,23.7,92,30.25,10.0,Calm,Calm,-,N/A,,Clear,0,2013-03-09 10:15:00
5:35 AM,25.9,23.5,91,30.26,10.0,Calm,Calm,-,N/A,,Clear,0,2013-03-09 10:35:00
5:55 AM,26.6,23.7,89,30.27,10.0,Calm,Calm,-,N/A,,Clear,0,2013-03-09 10:55:00
6:15 AM,26.2,24.6,94,30.28,10.0,Calm,Calm,-,N/A,,Clear,0,2013-03-09 11:15:00
6:35 AM,26.4,23.9,90,30.28,10.0,Calm,Calm,-,N/A,,Clear,0,2013-03-09 11:35:00
6:55 AM,26.8,23.9,89,30.29,10.0,Calm,Calm,-,N/A,,Clear,0,2013-03-09 11:55:00
7:15 AM,27.5,24.6,89,30.29,10.0,Calm,Calm,-,N/A,,Clear,0,2013-03-09 12:15:00
7:35 AM,27.7,25.0,90,30.29,10.0,Calm,Calm,-,N/A,,Clear,0,2013-03-09 12:35:00
7:55 AM,29.3,25.7,86,30.30,10.0,Calm,Calm,-,N/A,,Clear,0,2013-03-09 12:55:00
8:15 AM,31.5,26.8,83,30.30,10.0,Calm,Calm,-,N/A,,Clear,0,2013-03-09 13:15:00
8:35 AM,32.5,27.3,81,30.30,10.0,Calm,Calm,-,N/A,,Clear,0,2013-03-09 13:35:00
8:55 AM,34.5,28.8,79,30.30,10.0,Calm,Calm,-,N/A,,Clear,0,2013-03-09 13:55:00
9:15 AM,37.0,29.5,74,30.30,10.0,Calm,Calm,-,N/A,,Clear,0,2013-03-09 14:15:00
9:35 AM,41.0,29.3,63,30.29,10.0,Calm,Calm,-,N/A,,Clear,0,2013-03-09 14:35:00
9:55 AM,42.8,29.5,59,30.29,10.0,Calm,Calm,-,N/A,,Clear,0,2013-03-09 14:55:00
10:15 AM,46.4,29.1,51,30.28,10.0,Calm,Calm,-,N/A,,Clear,0,2013-03-09 15:15:00
10:35 AM,50.4,27.3,41,30.28,10.0,WSW,4.6,-,N/A,,Clear,250,2013-03-09 15:35:00
10:55 AM,52.7,28.2,39,30.27,10.0,Calm,Calm,-,N/A,,Clear,0,2013-03-09 15:55:00
11:15 AM,55.6,26.4,33,30.27,10.0,WSW,6.9,-,N/A,,Clear,240,2013-03-09 16:15:00
11:35 AM,57.2,28.0,33,30.27,10.0,West,8.1,-,N/A,,Clear,260,2013-03-09 16:35:00
11:55 AM,58.6,28.8,32,30.27,10.0,West,6.9,-,N/A,,Clear,260,2013-03-09 16:55:00
12:15 PM,59.7,27.7,30,30.26,10.0,WSW,5.8,-,N/A,,Clear,240,2013-03-09 17:15:00
12:35 PM,60.1,25.3,27,30.25,10.0,SW,3.5,-,N/A,,Clear,230,2013-03-09 17:35:00
12:55 PM,62.1,29.5,29,30.24,10.0,West,9.2,-,N/A,,Clear,270,2013-03-09 17:55:00
1:15 PM,62.8,29.5,29,30.22,10.0,West,10.4,-,N/A,,Clear,270,2013-03-09 18:15:00
1:35 PM,62.8,30.0,29,30.21,10.0,West,10.4,-,N/A,,Clear,270,2013-03-09 18:35:00
1:55 PM,64.2,31.3,29,30.20,10.0,West,10.4,-,N/A,,Clear,280,2013-03-09 18:55:00
2:15 PM,64.4,30.2,28,30.19,10.0,West,6.9,-,N/A,,Clear,270,2013-03-09 19:15:00
2:35 PM,64.4,29.5,27,30.18,10.0,West,9.2,-,N/A,,Clear,270,2013-03-09 19:35:00
2:55 PM,65.5,30.0,26,30.18,10.0,West,12.7,-,N/A,,Scattered Clouds,270,2013-03-09 19:55:00
3:15 PM,63.5,31.8,31,30.18,10.0,West,10.4,-,N/A,,Scattered Clouds,280,2013-03-09 20:15:00
3:35 PM,63.5,30.7,29,30.17,10.0,West,11.5,-,N/A,,Mostly Cloudy,280,2013-03-09 20:35:00
3:55 PM,64.4,31.1,29,30.17,10.0,West,11.5,-,N/A,,Scattered Clouds,270,2013-03-09 20:55:00
4:15 PM,62.4,31.3,31,30.18,10.0,WSW,11.5,-,N/A,,Scattered Clouds,250,2013-03-09 21:15:00
4:35 PM,62.1,31.5,32,30.17,10.0,West,10.4,-,N/A,,Scattered Clouds,270,2013-03-09 21:35:00
4:55 PM,61.3,32.7,34,30.18,10.0,West,9.2,-,N/A,,Clear,270,2013-03-09 21:55:00
5:15 PM,60.1,33.8,37,30.18,10.0,West,9.2,-,N/A,,Scattered Clouds,260,2013-03-09 22:15:00
5:35 PM,59.9,32.5,36,30.18,10.0,West,6.9,-,N/A,,Scattered Clouds,260,2013-03-09 22:35:00
5:55 PM,59.2,32.4,36,30.18,10.0,WSW,8.1,-,N/A,,Scattered Clouds,250,2013-03-09 22:55:00
6:15 PM,58.6,30.6,34,30.19,10.0,WSW,9.2,-,N/A,,Clear,240,2013-03-09 23:15:00
6:35 PM,57.9,30.7,36,30.19,10.0,SW,5.8,-,N/A,,Clear,230,2013-03-09 23:35:00
6:55 PM,55.6,32.2,41,30.20,10.0,West,8.1,-,N/A,,Clear,260,2013-03-09 23:55:00
7:15 PM,53.2,33.8,48,30.20,10.0,West,6.9,-,N/A,,Clear,260,2013-03-10 00:15:00
7:35 PM,53.6,31.6,43,30.20,10.0,West,6.9,-,N/A,,Clear,270,2013-03-10 00:35:00
7:55 PM,50.9,32.9,50,30.21,10.0,WSW,5.8,-,N/A,,Clear,240,2013-03-10 00:55:00
8:15 PM,50.7,32.0,49,30.22,10.0,WSW,5.8,-,N/A,,Clear,240,2013-03-10 01:15:00
8:35 PM,50.4,31.3,48,30.23,10.0,West,6.9,-,N/A,,Clear,270,2013-03-10 01:35:00
8:55 PM,46.8,32.4,57,30.23,10.0,WSW,4.6,-,N/A,,Clear,250,2013-03-10 01:55:00
9:15 PM,49.1,31.5,51,30.22,10.0,Calm,Calm,-,N/A,,Clear,0,2013-03-10 02:15:00
9:35 PM,47.1,32.7,57,30.22,10.0,Calm,Calm,-,N/A,,Clear,0,2013-03-10 02:35:00
9:55 PM,45.9,35.1,66,30.22,10.0,Calm,Calm,-,N/A,,Clear,0,2013-03-10 02:55:00
10:15 PM,46.9,33.4,59,30.23,10.0,Calm,Calm,-,N/A,,Clear,0,2013-03-10 03:15:00
10:35 PM,44.8,35.6,70,30.22,10.0,Calm,Calm,-,N/A,,Clear,0,2013-03-10 03:35:00
10:55 PM,41.5,34.2,75,30.22,10.0,Calm,Calm,-,N/A,,Clear,0,2013-03-10 03:55:00
11:15 PM,41.4,32.5,71,30.21,10.0,Calm,Calm,-,N/A,,Clear,0,2013-03-10 04:15:00
11:35 PM,40.6,33.4,75,30.21,10.0,Calm,Calm,-,N/A,,Clear,0,2013-03-10 04:35:00
11:55 PM,37.6,32.5,82,30.22,10.0,Calm,Calm,-,N/A,,Clear,0,2013-03-10 04:55:00